Home   Weather   Shenyang   Past weeks

Flag for China Past Weather in Shenyang, Liaoning, China — Yesterday and Last 2 Weeks

Now
7 °F

Clear.


Feels Like: 0 °F
Forecast: 5 / 28 °F
Wind: 3 mph from Southeast

Location: Shenyang / Taoxian

Current Time: Dec 9, 2016 at 9:50:36 pm

Latest Report: Dec 9, 2016 at 9:30 pm


Visibility: 4 mi

Pressure: 30.39 "Hg

Humidity: 85%

Dew Point: 3 °F

Location of ShenyangLocation

Past Weather in Shenyang — Graph

°F

Shenyang Temperature Yesterday

Maximum temperature yesterday: 36 °F (at 1:30 pm)
Minimum temperature yesterday: 12 °F (at 1:00 am)
Average temperature yesterday: 24 °F

High & Low Weather Summary for the Past Weeks

 TemperatureHumidityPressure
High50 °F (Dec 3, 12:30 pm)100% (Nov 27, 1:00 am)30.63 "Hg (Nov 27, 1:00 am)
Low0 °F (Dec 9, 7:30 am)28% (Nov 29, 1:30 pm)29.83 "Hg (Dec 8, 1:00 pm)
Average28 °F67%30.23 "Hg
* Reported Nov 24 8:00 pm — Dec 9 8:30 pm, Shenyang, Weather by CustomWeather, © 2016

Note: Actual official high and low records may vary slightly from our data, if they occured in-between our weather recording intervals... More about our weather records

Advertising

Shenyang Weather History for the Previous 24 Hours

Scroll right to see more
 ConditionsComfort  
Time TempWeatherWind HumidityBarometerVisibility
8:30 pm
Fri, Dec 9
5 °FClear.1 mph85%30.42 "Hg4 mi
8:00 pm10 °FClear.6 mph85%30.39 "Hg4 mi
7:30 pm9 °FClear.6 mph85%30.39 "Hg2 mi
7:00 pm10 °FClear.3 mph85%30.39 "Hg2 mi
6:30 pm10 °FClear.3 mph85%30.39 "Hg2 mi
6:00 pm9 °FClear.1 mph85%30.39 "Hg2 mi
5:30 pm10 °FClear.1 mph79%30.39 "Hg4 mi
5:00 pm12 °FClear.3 mph85%30.36 "Hg4 mi
4:30 pm16 °FClear.1 mph73%30.36 "Hg4 mi
4:00 pm18 °FClear.1 mph73%30.36 "Hg4 mi
3:30 pm19 °FSunny.1 mph68%30.36 "Hg10 mi
3:00 pm19 °FSunny.3 mph68%30.33 "Hg10 mi
2:30 pm19 °FClear.3 mph68%30.33 "Hg4 mi
2:00 pm21 °FIce fog.3 mph63%30.33 "Hg3 mi
1:30 pm21 °FIce fog.1 mph63%30.33 "Hg3 mi
1:00 pm19 °FIce fog.3 mph68%30.33 "Hg3 mi
12:30 pm19 °FIce fog.3 mph68%30.33 "Hg2 mi
12:00 pm19 °FIce fog.3 mph73%30.33 "Hg2 mi
11:30 am18 °FIce fog.3 mph73%30.33 "Hg2 mi
11:00 am18 °FIce fog.1 mph73%30.33 "Hg2 mi
10:30 am14 °FIce fog.3 mph85%30.36 "Hg2 mi
10:00 am12 °FIce fog.1 mph85%30.36 "Hg2 mi
9:30 am10 °FIce fog.1 mph85%30.36 "Hg2 mi
9:00 am7 °FIce fog.1 mph92%30.33 "Hg2 mi
8:30 am1 °FIce fog.1 mph92%30.33 "Hg2 mi
8:00 am1 °FIce fog.1 mph85%30.30 "Hg2 mi
7:30 am0 °FIce fog.3 mph84%30.30 "Hg3 mi
7:00 am1 °FIce fog.3 mph92%30.30 "Hg3 mi
6:30 am3 °FClear.3 mph85%30.27 "Hg4 mi
6:00 am1 °FClear.3 mph92%30.27 "Hg4 mi
5:30 am1 °FIce fog.1 mph85%30.27 "Hg2 mi
5:00 am3 °FIce fog.1 mph85%30.24 "Hg2 mi
4:30 am3 °FIce fog.3 mph85%30.24 "Hg3 mi
4:00 am3 °FClear.3 mph92%30.24 "Hg4 mi
3:30 am3 °FClear.1 mph85%30.21 "Hg4 mi
3:00 am3 °FClear.1 mph85%30.21 "Hg4 mi
2:30 am3 °FClear.1 mph92%30.21 "Hg4 mi
2:00 am5 °FClear.1 mph92%30.21 "Hg10 mi
1:30 am10 °FPassing clouds.3 mph85%30.18 "HgN/A
1:00 am10 °FClear.3 mph85%30.18 "Hg10 mi
12:30 am12 °FClear.1 mph79%30.18 "Hg10 mi
12:00 am16 °FPassing clouds.3 mph79%30.15 "HgN/A
11:30 pm
Thu, Dec 8
18 °FClear.3 mph73%30.15 "Hg10 mi
11:00 pm18 °FClear.6 mph73%30.15 "Hg10 mi
10:30 pm19 °FClear.6 mph73%30.15 "Hg10 mi
10:00 pm19 °FClear.6 mph79%30.15 "Hg10 mi
9:30 pm21 °FClear.8 mph74%30.12 "Hg4 mi
9:00 pm21 °FIce fog.8 mph80%30.12 "Hg3 mi
Weather by CustomWeather, © 2016

See weather overviewHow to use our weather pages